Champaign, IL

12:10 PM CDT on July 19, 2019 (GMT -0500)
Univ Of Illinois-Willard

Weather History for KCMI - May, 2019

Change the Weather History Date:

Wednesday, May 29, 2019

  Actual Average Record
Temperature  
Mean Temperature 71 °F 68 °F  
Max Temperature 81 °F 80 °F 93 °F (2006)
Min Temperature 61 °F 55 °F 39 °F (2001)
Degree Days  
Heating Degree Days 0 2  
Month to date heating degree days 136 137  
Since 1 July heating degree days 5899 5801  
Cooling Degree Days 6 4  
Month to date cooling degree days 96 72  
Year to date cooling degree days 99 83  
Growing Degree Days 21 (Base 50)    
Moisture  
Dew Point 63 °F    
Average Humidity 79    
Maximum Humidity 93    
Minimum Humidity 64    
Precipitation  
Precipitation 0.25 in 0.14 in 0.70 in (2014)
Month to date precipitation 4.93 4.27  
Year to date precipitation 17.07 14.88  
Sea Level Pressure  
Sea Level Pressure 29.76 in    
Wind  
Wind Speed 8 mph (East)    
Max Wind Speed 22 mph    
Max Gust Speed 30 mph    
Visibility 9 miles    
Events Rain , Thunderstorm    
T = Trace of Precipitation, MM = Missing Value Source: NWS Daily Summary

Daily Weather History Graph

Daily Weather History Graph

Search for Another Location

Airport or City:

Astronomy

May. 29, 2019 Rise Set
Actual Time 5:27 AM CDT 8:13 PM CDT
Civil Twilight 4:55 AM CDT 8:45 PM CDT
Nautical Twilight 4:15 AM CDT 9:25 PM CDT
Astronomical Twilight 3:30 AM CDT 10:11 PM CDT
Moon 3:06 AM CDT (5/29) 3:21 PM CDT (5/29)
Length of Visible Light 15h 49m
Length of Day
14h 45m
Waning Crescent, 23% of the Moon is Illuminated
May 29
Waning Crescent
Jun 3
New
Jun 10
First Quarter
Jun 17
Full
Jun 25
Last Quarter

Hourly Weather History & Observations

Time (CDT) Temp. Heat Index Dew Point Humidity Pressure Visibility Wind Dir Wind Speed Gust Speed Precip Events Conditions
12:53 AM 63.0 °F - 57.0 °F 81% 29.76 in 10.0 mi NNE 11.5 mph - N/A   Overcast
1:28 AM 62.1 °F - 57.0 °F 84% 29.75 in 10.0 mi ENE 9.2 mph - 0.00 in Thunderstorm Overcast
1:42 AM 61.0 °F - 57.9 °F 90% 29.82 in 2.5 mi NW 13.8 mph - 0.11 in Rain , Thunderstorm Heavy Thunderstorms and Rain
1:53 AM 61.0 °F - 59.0 °F 93% 29.80 in 3.0 mi NNW 13.8 mph 24.2 mph 0.17 in Rain , Thunderstorm Light Thunderstorms and Rain
2:12 AM 61.0 °F - 59.0 °F 93% 29.78 in 8.0 mi NNE 8.1 mph - 0.00 in Rain , Thunderstorm Light Rain
2:26 AM 61.0 °F - 59.0 °F 93% 29.77 in 10.0 mi NE 10.4 mph - 0.00 in   Overcast
2:39 AM 61.0 °F - 60.1 °F 97% 29.79 in 10.0 mi SSW 5.8 mph - 0.00 in Thunderstorm Thunderstorm
2:53 AM 62.1 °F - 59.0 °F 90% 29.74 in 9.0 mi ESE 6.9 mph - 0.00 in   Overcast
3:53 AM 62.1 °F - 60.1 °F 93% 29.75 in 7.0 mi East 6.9 mph - N/A   Overcast
4:53 AM 62.1 °F - 60.1 °F 93% 29.75 in 10.0 mi East 5.8 mph - 0.08 in   Mostly Cloudy
5:53 AM 63.0 °F - 61.0 °F 93% 29.77 in 10.0 mi Calm Calm - 0.00 in   Overcast
6:53 AM 64.0 °F - 62.1 °F 93% 29.73 in 10.0 mi SE 8.1 mph - 0.00 in   Mostly Cloudy
7:53 AM 66.0 °F - 62.1 °F 87% 29.73 in 10.0 mi SSE 11.5 mph - N/A   Clear
8:53 AM 68.0 °F - 63.0 °F 84% 29.72 in 10.0 mi SSE 12.7 mph - N/A   Clear
9:53 AM 69.1 °F - 63.0 °F 81% 29.73 in 10.0 mi SSE 8.1 mph - N/A   Clear
10:53 AM 73.0 °F - 64.9 °F 76% 29.76 in 10.0 mi South 8.1 mph - N/A   Clear
11:53 AM 77.0 °F - 64.9 °F 66% 29.75 in 10.0 mi SE 8.1 mph - N/A   Clear
12:53 PM 77.0 °F - 64.9 °F 66% 29.76 in 10.0 mi Calm Calm - N/A   Overcast
1:29 PM 78.1 °F - 66.0 °F 66% 29.77 in 10.0 mi NE 5.8 mph - N/A   Overcast
1:53 PM 79.0 °F - 66.0 °F 64% 29.76 in 10.0 mi Calm Calm - N/A   Mostly Cloudy
2:53 PM 81.0 °F 83.8 °F 68.0 °F 65% 29.75 in 10.0 mi NE 9.2 mph - N/A   Clear
3:53 PM 80.1 °F 82.7 °F 68.0 °F 67% 29.75 in 10.0 mi ENE 6.9 mph - N/A   Mostly Cloudy
4:53 PM 79.0 °F - 68.0 °F 69% 29.73 in 10.0 mi NNE 3.5 mph - N/A   Clear
5:53 PM 78.1 °F - 68.0 °F 71% 29.74 in 10.0 mi NE 8.1 mph - N/A   Clear
6:53 PM 77.0 °F - 66.9 °F 71% 29.73 in 10.0 mi East 8.1 mph - N/A   Clear
7:53 PM 75.0 °F - 68.0 °F 79% 29.76 in 10.0 mi ESE 6.9 mph - N/A   Clear
8:53 PM 72.0 °F - 62.1 °F 71% 29.78 in 10.0 mi SSE 16.1 mph - N/A   Partly Cloudy
9:53 PM 68.0 °F - 62.1 °F 81% 29.79 in 10.0 mi SW 12.7 mph 21.9 mph 0.00 in Rain Light Rain
10:53 PM 66.9 °F - 61.0 °F 81% 29.82 in 10.0 mi WSW 13.8 mph 21.9 mph 0.00 in Rain Light Rain
11:53 PM 66.9 °F - 62.1 °F 84% 29.81 in 10.0 mi West 6.9 mph - 0.00 in   Overcast